Location: Champs
(48.8539°N, 2.6040°E)
Time: 06:27:49
(UTC+00:00)

Cosmos 1953 - Pass Details

Date: 04 June 2022
Orbit: 533 x 555 km, 82.5° (Epoch: 03 July)

Event Time Altitude Azimuth Distance (km) Brightness Sun altitude
Rises 22:43:21 0° 354° (N) 2,717 7.5 -17.2°
Reaches altitude 10° 22:45:36 10° 0° (N) 1,815 6.1 -17.3°
Maximum altitude 22:49:28 49° 76° (ENE) 706 2.8 -17.4°
Enters shadow 22:50:48 33° 129° (SE) 911 3.0 -17.5°
